Temperature
7 8 7 7 8 7 7 8 9 10 10 11 12 12 11 10 9 8 8 8 8 8 8 9 9 9 9 8 8 8 8 8 7 7 7 7 6 6 6 6 5 5 5 5
7 7 7 7 8 8 8 8 9 9 10 11 11 10 10 9 9 9 8 8 9 9 9 9 9 9 9 8 8 8 7 7 6 6 6 6 5 5 5 5 5 4 4 4
7 7 7 7 8 8 8 8 9 9 10 11 10 10 10 9 9 9 9 9 9 9 9 9 9 9 8 8 7 7 7 6 6 5 5 5 4 4 4 4 4 3 3 3
7 7 6 9 8 8 8 9 9 9 10 10 10 9 9 9 9 9 9 9 9 9 9 9 9 8 8 8 7 7 6 6 5 5 4 4 3 3 3 3 2 2 2 2
7 7 8 9 8 8 8 8 9 9 9 9 8 8 9 8 8 9 9 9 9 9 9 9 9 8 8 7 7 6 6 5 4 4 3 3 3 2 2 2 2 1 1 1
6 7 7 9 8 7 8 8 9 8 8 8 8 9 10 8 8 9 9 9 9 9 9 9 9 8 8 7 7 6 5 5 4 3 3 2 2 2 1 1 1 1 1 0
6 6 8 8 7 7 8 9 8 7 7 7 8 8 8 7 8 8 8 9 9 9 9 9 8 8 7 7 7 6 5 4 3 3 2 2 1 1 1 0 0 0 0 -0
6 6 7 7 7 7 8 7 7 7 7 6 6 6 7 7 7 7 8 8 8 8 8 8 8 7 7 7 6 5 4 3 3 2 2 1 1 0 0 -0 -0 -0 -0 -0
6 7 6 5 6 5 5 6 6 6 6 6 6 6 6 7 7 7 7 7 7 7 7 7 7 7 6 6 5 4 3 3 2 1 1 1 0 0 -0 -0 -0 -1 -1 -1
5 6 6 5 5 5 5 5 5 6 6 6 6 6 6 6 6 6 6 6 6 6 6 6 6 6 5 4 4 3 3 2 2 1 1 0 0 -0 -0 -0 -1 -1 -1 -1
4 5 5 5 5 4 5 5 5 5 5 6 6 6 6 6 6 6 6 6 6 6 5 5 5 5 4 4 3 3 2 2 1 0 0 -0 -0 -0 -1 -1 -1 -1 -1 -1
4 4 4 4 4 4 4 4 4 5 5 5 5 5 5 5 5 5 5 5 5 5 5 4 4 4 4 3 3 2 2 1 1 0 -0 -0 -1 -1 -1 -1 -1 -1 -1 -1
2 2 2 3 3 3 4 4 4 4 4 5 5 5 5 4 4 4 4 4 4 4 4 4 3 3 3 3 2 2 1 1 0 -0 -0 -1 -1 -1 -1 -1 -1 -1 -1 -1
1 1 2 2 2 3 3 3 4 4 4 4 4 4 4 4 4 4 4 4 3 3 3 3 3 3 2 2 2 1 1 1 0 -0 -0 -1 -1 -1 -1 -1 -1 -1 -1 -1
1 1 1 1 2 2 2 3 3 3 3 3 3 3 3 3 3 3 3 3 3 3 2 2 2 2 2 2 1 1 1 1 0 -0 -0 -1 -1 -1 -1 -1 -1 -1 -1 -1
0 0 1 1 1 1 2 2 2 2 2 2 3 3 2 2 2 2 2 2 2 2 2 2 2 1 1 1 1 1 1 0 0 -0 -0 -1 -1 -1 -1 -1 -1 -1 -1 -1
-0 -0 0 1 1 1 1 1 1 2 2 2 2 2 2 2 2 2 2 2 2 1 1 1 1 1 1 1 1 0 0 0 -0 -0 -0 -1 -1 -1 -1 -1 -1 -1 -1 -1
-1 -1 -0 -0 0 0 1 1 1 1 1 1 1 1 1 1 1 1 1 1 1 1 1 1 1 0 0 0 0 -0 -0 -0 -0 -0 -1 -1 -1 -1 -1 -1 -1 -1 -1 -1
-1 -1 -1 -0 -0 -0 -0 -0 0 0 0 0 0 0 0 0 0 0 0 0 0 0 0 0 0 0 0 -0 -0 -0 -1 -1 -1 -1 -1 -1 -1 -1 -1 -1 -2 -2 -2 -2
-1 -1 -1 -1 -1 -1 -1 -1 -1 -1 -1 -0 -0 -0 -0 -0 -0 -0 -0 -0 -0 -0 -0 -0 -0 -0 -0 -0 -1 -1 -1 -1 -1 -1 -1 -1 -1 -2 -2 -2 -2 -2 -2 -2
-2 -2 -2 -2 -2 -2 -2 -2 -2 -1 -1 -1 -1 -1 -1 -1 -1 -1 -1 -1 -1 -1 -1 -1 -1 -1 -1 -1 -1 -1 -1 -1 -1 -2 -2 -2 -2 -2 -2 -2 -2 -2 -2 -2
-2 -2 -2 -2 -2 -2 -2 -2 -2 -2 -2 -2 -2 -2 -2 -1 -1 -1 -2 -2 -1 -1 -1 -1 -1 -1 -1 -2 -2 -2 -2 -2 -2 -2 -2 -2 -3 -3 -3 -3 -3 -3 -3 -3
-2 -3 -3 -3 -3 -3 -3 -3 -3 -2 -2 -2 -2 -2 -2 -2 -2 -2 -2 -2 -2 -2 -2 -2 -2 -2 -2 -2 -2 -2 -2 -3 -3 -3 -3 -3 -3 -3 -3 -3 -4 -3 -3 -3
-3 -3 -3 -3 -3 -3 -3 -3 -3 -3 -3 -3 -3 -3 -3 -3 -3 -3 -3 -3 -3 -3 -3 -3 -3 -3 -3 -3 -3 -3 -3 -3 -3 -4 -4 -4 -4 -4 -4 -4 -4 -4 -4 -4
-3 -3 -3 -3 -3 -3 -3 -3 -3 -3 -3 -3 -3 -3 -3 -3 -3 -3 -3 -3 -3 -3 -3 -3 -3 -3 -3 -4 -4 -4 -4 -4 -4 -4 -4 -4 -5 -5 -5 -5 -5 -5 -5 -5
-3 -3 -3 -3 -3 -3 -3 -3 -3 -3 -3 -3 -4 -4 -4 -4 -4 -4 -4 -4 -4 -4 -4 -4 -4 -4 -4 -4 -4 -4 -4 -5 -5 -5 -5 -5 -5 -5 -5 -5 -5 -5 -5 -5
-3 -3 -3 -3 -3 -3 -3 -4 -4 -4 -4 -4 -4 -4 -4 -4 -4 -4 -4 -4 -4 -5 -5 -5 -5 -5 -5 -5 -5 -5 -5 -5 -5 -5 -5 -6 -6 -6 -6 -6 -6 -6 -6 -6
Wind_Speed
7 5 5 8 11 15 16 14 11 11 13 14 11 10 8 6 5 5 7 9 10 10 10 10 9 9 8 8 8 7 7 6 5 5 5 4 4 4 4 4 4 4 4 4
5 5 7 9 12 15 17 16 18 16 17 14 12 10 10 10 9 9 10 11 11 11 11 11 11 10 10 9 8 8 7 6 6 6 5 5 5 5 4 4 4 4 4 4
4 3 4 8 11 15 13 13 13 16 15 11 11 11 11 10 10 11 11 11 12 12 12 12 12 11 11 10 9 9 8 7 7 7 6 6 5 5 5 5 5 4 4 4
3 3 6 3 1 7 12 14 14 14 13 12 12 11 11 10 11 11 10 10 11 11 11 11 10 10 10 10 10 9 9 8 8 7 7 6 6 6 5 5 5 4 5 5
3 4 6 4 2 4 6 6 8 12 14 12 9 8 8 8 9 10 9 8 8 9 9 9 10 11 11 11 10 10 9 9 9 8 8 7 7 6 5 5 5 4 4 5
4 4 4 1 1 1 3 4 2 5 7 6 4 5 3 3 3 4 4 4 5 6 7 9 10 11 12 11 11 11 10 9 9 9 8 8 7 7 5 5 5 5 5 4
6 5 4 3 1 3 3 1 3 3 4 4 4 4 4 4 3 1 0 1 3 6 6 7 9 11 11 11 11 10 9 9 9 9 8 8 7 6 7 6 6 5 5 4
4 5 3 3 2 2 3 4 4 4 4 3 3 3 3 2 2 2 2 2 3 4 4 5 8 10 10 9 8 8 9 9 9 9 8 7 8 7 7 7 7 6 6 5
4 3 3 2 2 4 5 5 6 5 4 3 2 1 1 1 2 2 2 2 2 3 4 5 7 8 8 7 8 9 9 9 9 9 8 8 9 9 8 7 6 6 6 6
5 5 6 6 4 5 5 6 6 5 5 3 2 1 0 1 1 2 2 2 2 3 3 4 5 6 6 6 9 9 10 9 9 9 8 8 7 7 8 8 7 7 7 7
6 7 7 4 6 7 7 6 5 4 4 3 1 0 0 1 1 1 1 1 1 2 3 3 4 6 6 7 9 9 9 9 8 8 8 8 8 8 9 8 8 9 8 7
4 6 7 9 9 9 8 6 5 3 3 3 1 1 1 1 1 0 0 0 1 2 2 3 4 5 6 8 9 9 8 9 8 7 7 7 7 6 9 9 11 13 10 8
8 10 10 11 10 8 7 6 4 3 2 2 1 0 1 1 1 0 0 0 1 2 3 3 4 5 6 8 9 10 9 9 8 8 8 8 8 8 7 8 12 13 14 14
10 9 9 7 8 8 6 4 2 1 1 1 1 1 1 1 1 1 1 2 2 2 2 2 3 4 4 7 9 9 9 9 8 8 8 8 8 8 7 7 7 7 11 16
9 8 9 9 8 6 4 2 1 1 1 1 1 1 1 1 0 1 2 2 1 1 1 2 3 3 3 5 8 9 8 7 7 7 7 7 7 7 7 8 8 7 6 8
11 10 8 8 7 6 4 3 3 2 1 0 0 1 1 0 1 1 2 2 1 1 2 2 3 3 2 4 6 7 7 9 8 7 7 7 7 7 8 8 8 8 8 8
9 8 7 8 7 5 4 4 3 2 1 1 0 1 0 0 0 1 2 2 2 1 2 2 3 3 3 4 5 5 6 7 10 8 7 7 8 8 8 8 9 9 9 9
8 9 8 8 7 5 3 2 1 0 0 1 1 0 0 1 1 2 3 3 2 1 2 3 4 3 3 3 4 4 4 5 6 7 7 7 8 8 8 8 9 10 8 8
8 7 6 4 3 2 1 1 1 1 1 1 1 1 1 1 2 3 3 2 2 3 3 4 5 4 3 3 3 3 4 5 6 6 6 9 9 8 8 9 9 9 8 8
7 6 5 4 3 2 2 2 1 1 1 1 1 1 1 2 3 3 2 2 2 3 5 5 5 4 4 4 4 4 4 5 6 6 6 7 7 8 8 9 9 9 9 9
6 5 5 4 3 3 2 2 1 1 2 2 1 1 2 2 3 3 2 2 2 4 5 5 4 4 4 4 5 4 4 5 5 6 6 6 7 7 8 8 8 8 9 9
5 4 4 3 2 2 2 2 2 2 2 2 2 2 2 3 3 3 2 2 4 6 5 4 4 5 6 6 4 4 5 5 5 5 6 6 6 7 7 8 8 8 8 8
5 4 3 3 2 2 2 2 2 2 2 2 3 3 3 3 3 3 3 3 4 6 5 4 6 8 8 5 4 4 5 5 5 5 5 6 6 6 7 7 7 7 7 7
5 4 4 3 2 3 3 4 3 2 3 3 3 3 4 3 3 3 4 5 6 7 5 6 8 8 7 3 4 4 4 5 5 5 5 5 5 5 6 6 6 6 7 8
5 4 4 4 4 4 4 4 3 3 3 3 4 4 3 3 3 4 4 5 6 6 5 6 8 8 5 4 4 4 4 5 5 5 5 5 5 5 5 6 6 6 6 7
5 5 4 4 4 4 4 3 3 3 3 4 3 3 3 3 4 4 4 4 5 6 5 4 5 5 4 4 4 5 5 5 5 5 5 5 6 6 6 6 7 6 6 6
5 5 4 4 4 4 4 4 4 4 4 4 4 3 3 3 3 4 4 4 4 4 4 4 4 4 4 4 5 5 5 5 5 5 5 5 5 5 6 6 6 6 6 6
Wind_Direction
257 253 215 222 217 210 216 226 238 249 254 264 272 279 278 272 253 226 213 204 198 195 190 185 182 180 176 171 167 164 163 162 159 152 147 145 141 136 131 126 121 119 115 112
253 243 229 237 232 224 227 234 243 256 264 268 275 273 266 258 249 238 226 217 210 204 199 195 192 187 181 178 173 170 171 169 160 157 155 153 150 146 141 135 130 128 125 125
248 246 237 248 232 224 225 227 233 244 255 270 271 265 260 256 248 241 235 224 214 210 206 203 198 191 187 181 172 174 176 171 168 166 163 161 158 156 152 147 140 134 128 126
251 226 239 273 222 224 231 242 239 250 265 273 276 280 278 265 254 246 239 229 219 212 208 203 195 189 183 174 174 176 177 176 175 173 170 167 167 165 159 151 147 140 133 129
233 242 262 276 237 204 220 254 246 250 263 274 286 285 273 258 249 247 244 233 220 209 202 192 186 180 174 175 178 181 184 183 181 178 175 174 175 169 161 155 149 146 140 140
234 241 249 297 13 198 214 257 282 256 271 281 271 261 298 356 289 248 237 221 205 189 180 181 179 173 175 180 184 191 190 185 181 181 181 182 179 170 163 159 155 153 147 151
241 249 267 312 299 177 223 331 347 290 285 278 251 273 327 345 350 348 175 167 166 166 172 177 170 173 182 186 194 191 181 178 179 183 185 181 175 170 163 160 159 162 160 165
238 240 259 23 134 206 319 340 325 313 310 289 274 292 316 348 22 56 85 107 142 156 159 162 170 177 186 194 187 173 172 176 180 182 180 175 172 169 169 167 169 174 176 179
264 275 346 343 300 323 326 312 315 314 317 305 284 287 319 43 56 68 83 101 124 148 151 161 177 186 191 186 169 170 174 179 180 181 181 179 178 175 174 178 183 185 188 193
280 286 308 309 311 315 315 311 314 316 310 293 279 278 143 95 75 75 85 105 124 146 161 175 185 195 195 175 171 174 180 183 182 183 184 183 185 184 186 189 192 194 197 202
276 299 311 308 326 324 322 320 318 334 328 309 269 239 205 123 83 66 84 116 156 183 198 198 191 196 189 177 175 181 186 186 186 189 188 189 193 197 201 205 203 201 204 204
288 319 308 303 316 319 315 312 307 314 330 344 329 219 157 127 85 70 84 161 196 221 229 221 207 205 193 185 184 185 189 192 192 192 193 193 195 203 215 216 216 218 217 212
290 301 292 290 300 309 306 304 306 300 297 318 354 56 129 98 81 71 7 250 259 261 253 238 223 217 203 194 193 196 198 196 194 195 195 196 197 201 205 215 222 225 224 222
300 299 289 293 303 312 308 305 316 343 356 5 31 76 96 85 68 31 337 317 301 284 268 249 235 231 215 200 200 205 206 203 199 201 200 201 202 204 206 206 207 217 223 226
306 296 287 293 295 296 295 286 289 313 342 22 46 75 82 84 39 333 328 326 304 283 278 261 251 255 231 208 207 210 209 209 205 204 203 204 203 203 207 211 216 216 210 218
308 302 292 286 284 285 281 271 262 261 258 269 51 27 11 34 10 346 346 343 312 298 307 291 280 286 251 220 215 215 216 212 205 204 204 205 204 205 209 213 216 218 219 215
303 304 302 297 290 281 279 278 262 250 238 243 316 344 355 49 9 353 346 331 302 301 321 313 307 307 268 231 223 221 220 216 210 211 211 209 208 210 212 214 218 223 225 218
296 291 292 291 291 285 286 296 295 247 282 334 359 17 1 339 327 328 328 322 306 306 339 331 327 315 287 254 237 229 221 219 215 216 214 213 215 215 216 219 222 227 230 224
323 318 314 313 314 299 297 342 12 19 19 17 19 3 341 330 324 320 318 314 307 305 331 332 324 314 298 284 264 237 229 227 225 224 220 220 220 220 219 222 225 227 227 222
337 342 348 357 11 19 19 12 9 11 6 7 360 334 325 329 328 320 308 288 307 316 321 321 316 307 299 288 277 252 238 234 234 232 227 226 225 225 224 225 226 227 227 227
334 342 349 354 5 16 12 355 344 343 348 351 338 323 319 321 321 312 296 286 323 329 321 316 311 305 298 297 281 268 253 245 241 237 234 234 235 234 232 232 231 230 230 231
320 324 330 334 338 343 344 340 331 324 325 330 328 320 313 312 313 302 282 291 315 321 319 308 304 303 305 299 281 273 265 259 254 249 244 241 239 238 237 237 237 236 235 235
303 301 301 302 303 304 313 316 309 299 299 303 306 306 302 299 301 297 297 310 313 313 312 302 307 308 307 298 283 278 275 269 264 259 255 252 250 248 246 245 243 241 239 238
293 290 286 287 285 279 283 287 287 282 281 285 289 292 294 295 290 279 288 303 311 311 305 307 314 313 309 298 288 282 278 275 274 272 267 263 259 256 253 251 250 247 245 244
281 278 274 270 269 269 273 276 278 278 276 275 280 282 279 277 281 295 299 301 308 311 306 310 314 314 309 296 290 286 283 279 279 278 273 270 267 265 263 259 256 255 252 250
273 270 267 264 264 269 272 269 269 274 278 281 285 284 284 283 284 288 292 298 303 306 307 306 309 307 302 298 294 290 287 286 284 281 278 276 272 270 268 266 264 260 258 255
271 266 265 266 263 258 257 256 261 268 270 275 283 286 290 291 290 293 295 297 301 301 301 302 304 302 300 298 296 294 290 286 283 282 281 278 276 273 271 269 268 265 263 259
Height
1476 1476 1477 1476 1476 1478 1479 1475 1473 1466 1466 1462 1463 1464 1465 1466 1466 1467 1467 1468 1470 1472 1474 1477 1479 1482 1484 1486 1488 1490 1491 1492 1493 1494 1494 1495 1495 1495 1496 1496 1497 1497 1497 1497
1475 1473 1474 1474 1472 1473 1473 1472 1470 1468 1464 1461 1463 1464 1464 1464 1464 1464 1465 1466 1468 1470 1472 1474 1477 1479 1481 1483 1485 1487 1488 1489 1490 1490 1491 1491 1492 1492 1492 1493 1493 1494 1494 1494
1469 1471 1471 1468 1465 1466 1466 1465 1465 1464 1460 1459 1460 1461 1460 1460 1461 1461 1461 1463 1464 1466 1468 1471 1474 1476 1479 1481 1482 1484 1485 1486 1487 1487 1488 1488 1489 1489 1489 1490 1490 1491 1491 1491
1470 1471 1469 1459 1460 1461 1461 1460 1461 1459 1457 1458 1458 1457 1457 1456 1456 1457 1457 1459 1461 1463 1465 1468 1471 1473 1476 1478 1479 1481 1482 1483 1483 1484 1484 1485 1485 1486 1486 1487 1488 1488 1489 1489
1469 1465 1460 1458 1459 1460 1460 1457 1457 1457 1456 1455 1455 1454 1452 1451 1451 1452 1454 1455 1457 1459 1462 1465 1467 1470 1472 1474 1475 1477 1478 1479 1480 1481 1481 1482 1482 1483 1484 1485 1486 1486 1487 1488
1468 1464 1460 1457 1458 1459 1460 1455 1455 1455 1454 1454 1454 1451 1449 1449 1448 1449 1450 1452 1454 1456 1459 1461 1464 1466 1468 1470 1472 1473 1474 1476 1477 1477 1478 1479 1480 1480 1481 1482 1483 1484 1485 1486
1465 1462 1456 1458 1459 1460 1459 1455 1455 1454 1453 1453 1452 1451 1450 1448 1447 1447 1448 1450 1452 1454 1456 1459 1461 1463 1465 1466 1468 1470 1471 1472 1473 1474 1475 1476 1477 1478 1479 1480 1481 1482 1483 1484
1463 1461 1461 1460 1459 1459 1458 1457 1455 1454 1453 1452 1451 1449 1448 1447 1447 1447 1448 1449 1450 1452 1454 1456 1458 1460 1461 1463 1465 1466 1467 1468 1469 1471 1471 1472 1474 1475 1476 1478 1479 1480 1481 1482
1465 1463 1462 1462 1461 1460 1459 1457 1456 1454 1452 1451 1450 1449 1448 1448 1448 1448 1448 1449 1450 1451 1452 1454 1455 1457 1458 1460 1461 1462 1463 1465 1466 1467 1468 1469 1471 1472 1473 1475 1476 1477 1478 1480
1466 1461 1461 1461 1460 1459 1457 1456 1454 1453 1452 1451 1450 1449 1449 1448 1448 1448 1448 1449 1449 1450 1451 1452 1453 1454 1456 1457 1458 1459 1460 1461 1462 1464 1465 1466 1467 1469 1470 1471 1473 1474 1475 1477
1466 1463 1461 1458 1458 1458 1456 1454 1453 1452 1451 1450 1449 1449 1448 1448 1448 1448 1448 1448 1449 1449 1450 1450 1451 1452 1453 1454 1454 1455 1457 1458 1459 1460 1461 1463 1464 1465 1467 1469 1470 1472 1473 1474
1465 1464 1463 1460 1458 1456 1454 1453 1452 1451 1450 1449 1448 1448 1448 1448 1447 1447 1447 1447 1447 1448 1448 1448 1449 1449 1450 1450 1451 1452 1453 1454 1455 1456 1458 1459 1460 1462 1463 1465 1467 1468 1469 1471
1467 1464 1461 1458 1456 1454 1453 1451 1450 1449 1449 1448 1447 1447 1447 1446 1446 1446 1446 1446 1446 1446 1446 1446 1446 1446 1447 1447 1448 1448 1449 1450 1451 1452 1454 1455 1457 1458 1459 1461 1463 1464 1465 1466
1463 1461 1457 1455 1453 1452 1450 1449 1448 1447 1447 1446 1446 1445 1445 1445 1445 1444 1444 1444 1443 1443 1443 1443 1443 1443 1443 1443 1444 1445 1446 1446 1447 1448 1450 1451 1453 1454 1456 1457 1458 1459 1461 1462
1459 1457 1455 1452 1451 1449 1448 1447 1446 1445 1445 1444 1444 1444 1444 1443 1443 1442 1442 1441 1441 1440 1440 1440 1439 1439 1439 1440 1440 1441 1441 1442 1443 1444 1445 1447 1448 1450 1451 1452 1454 1455 1456 1458
1455 1453 1451 1449 1447 1446 1445 1444 1444 1443 1443 1443 1442 1442 1442 1441 1441 1440 1440 1439 1438 1437 1437 1436 1436 1436 1436 1436 1436 1436 1437 1438 1439 1439 1440 1442 1443 1444 1445 1447 1448 1449 1451 1452
1453 1450 1447 1446 1444 1443 1442 1442 1441 1441 1441 1441 1440 1440 1440 1439 1439 1438 1437 1436 1435 1435 1434 1433 1433 1433 1432 1432 1432 1432 1433 1433 1434 1435 1435 1437 1438 1439 1440 1441 1442 1443 1445 1446
1450 1448 1446 1444 1442 1441 1440 1439 1439 1439 1439 1438 1438 1438 1437 1437 1436 1435 1435 1434 1433 1432 1431 1430 1430 1429 1429 1428 1428 1428 1428 1428 1429 1430 1431 1431 1432 1433 1434 1435 1436 1437 1438 1439
1447 1444 1442 1441 1440 1439 1438 1437 1437 1437 1437 1436 1436 1435 1435 1434 1433 1433 1432 1431 1430 1429 1428 1427 1426 1426 1425 1424 1424 1424 1424 1424 1424 1425 1425 1426 1427 1427 1428 1428 1429 1430 1431 1432
1446 1443 1441 1440 1438 1437 1436 1436 1436 1435 1435 1434 1434 1433 1432 1432 1431 1430 1429 1428 1427 1426 1425 1424 1423 1422 1421 1420 1420 1420 1419 1419 1420 1420 1420 1420 1421 1421 1421 1422 1422 1423 1423 1424
1445 1442 1440 1439 1437 1436 1436 1435 1434 1434 1433 1432 1432 1431 1430 1429 1428 1427 1426 1425 1424 1422 1421 1420 1419 1418 1417 1416 1416 1415 1415 1415 1414 1414 1414 1414 1414 1414 1415 1415 1415 1415 1416 1416
1444 1442 1440 1438 1437 1436 1435 1434 1433 1433 1432 1431 1430 1429 1428 1427 1425 1424 1423 1422 1420 1419 1418 1416 1415 1414 1413 1412 1411 1410 1410 1409 1409 1409 1408 1408 1408 1408 1408 1408 1408 1408 1408 1408
1442 1440 1439 1437 1436 1435 1434 1433 1432 1431 1430 1429 1428 1426 1425 1424 1423 1421 1420 1419 1417 1415 1414 1412 1411 1410 1408 1407 1406 1405 1404 1404 1403 1403 1402 1402 1402 1402 1402 1402 1402 1401 1401 1401
1440 1438 1437 1435 1434 1433 1432 1431 1430 1429 1428 1426 1425 1424 1423 1421 1420 1418 1417 1415 1413 1412 1410 1408 1407 1405 1404 1403 1401 1400 1399 1398 1398 1397 1396 1396 1396 1395 1395 1395 1395 1394 1394 1394
1437 1436 1434 1433 1431 1430 1429 1428 1427 1426 1425 1424 1422 1421 1419 1418 1416 1415 1413 1411 1410 1408 1406 1405 1403 1401 1400 1398 1397 1396 1394 1393 1392 1391 1391 1390 1390 1389 1389 1389 1388 1388 1387 1387
1434 1432 1431 1430 1429 1427 1426 1425 1424 1423 1422 1420 1419 1418 1416 1414 1413 1411 1409 1408 1406 1404 1402 1401 1399 1397 1396 1394 1393 1391 1390 1389 1388 1387 1386 1385 1384 1383 1383 1382 1382 1381 1381 1380
1430 1428 1427 1426 1425 1424 1423 1422 1420 1419 1418 1417 1415 1414 1413 1411 1409 1407 1406 1404 1402 1400 1398 1397 1395 1393 1391 1390 1388 1387 1386 1384 1383 1382 1381 1380 1379 1378 1378 1377 1376 1375 1375 1374